Time,TemperatureF,DewpointF,PressureIn,WindDirection,WindDirectionDegrees,WindSpeedMPH,WindSpeedGustMPH,Humidity,HourlyPrecipIn,Conditions,Clouds,dailyrainin,SoftwareType,DateUTC
2013-03-09 00:00:00,63.0,59.7,30.04,SE,145,4.0,12.0,89,0.00,,SKC,0.00,VWS V14.01,2013-03-09 06:00:00,
2013-03-09 00:05:00,63.0,59.7,30.03,SSE,148,5.0,9.0,89,0.00,,SKC,0.00,VWS V14.01,2013-03-09 06:05:00,
2013-03-09 00:10:00,63.0,59.7,30.03,SE,143,9.0,11.0,89,0.00,,SKC,0.00,VWS V14.01,2013-03-09 06:10:00,
2013-03-09 00:15:00,63.0,59.7,30.03,SE,138,5.0,14.0,89,0.00,,SKC,0.00,VWS V14.01,2013-03-09 06:15:00,
2013-03-09 00:20:00,63.1,59.8,30.03,SSE,152,2.0,14.0,89,0.00,,SKC,0.00,VWS V14.01,2013-03-09 06:20:00,
2013-03-09 00:25:00,63.1,59.8,30.02,SE,144,6.0,15.0,89,0.00,,SKC,0.00,VWS V14.01,2013-03-09 06:25:00,
2013-03-09 00:30:00,63.1,59.8,30.02,SSE,147,4.0,15.0,89,0.00,,SKC,0.00,VWS V14.01,2013-03-09 06:30:00,
2013-03-09 00:35:00,63.1,59.8,30.02,SE,144,6.0,11.0,89,0.00,,SKC,0.00,VWS V14.01,2013-03-09 06:35:00,
2013-03-09 00:40:00,63.1,59.8,30.02,SE,135,8.0,12.0,89,0.00,,SKC,0.00,VWS V14.01,2013-03-09 06:40:00,
2013-03-09 00:45:00,63.2,59.9,30.02,SE,144,9.0,12.0,89,0.00,,SKC,0.00,VWS V14.01,2013-03-09 06:45:00,
2013-03-09 00:50:00,63.2,59.9,30.02,ESE,113,3.0,12.0,89,0.00,,SKC,0.00,VWS V14.01,2013-03-09 06:50:00,
2013-03-09 00:55:00,63.2,59.9,30.02,SE,140,3.0,12.0,89,0.00,,SKC,0.00,VWS V14.01,2013-03-09 06:55:00,
2013-03-09 01:00:00,63.2,59.9,30.01,SE,146,2.0,12.0,89,0.00,,SKC,0.00,VWS V14.01,2013-03-09 07:00:00,
2013-03-09 01:05:00,63.2,59.9,30.01,SE,146,4.0,8.0,89,0.00,,SKC,0.00,VWS V14.01,2013-03-09 07:05:00,
2013-03-09 01:10:00,63.2,59.9,30.00,SE,132,9.0,13.0,89,0.00,,SKC,0.00,VWS V14.01,2013-03-09 07:10:00,
2013-03-09 01:15:00,63.2,59.9,30.00,SSE,150,4.0,13.0,89,0.00,,SKC,0.00,VWS V14.01,2013-03-09 07:15:00,
2013-03-09 01:20:00,63.2,59.9,30.00,SE,144,6.0,13.0,89,0.00,,SKC,0.00,VWS V14.01,2013-03-09 07:20:00,
2013-03-09 01:25:00,63.2,59.9,29.99,SE,145,4.0,13.0,89,0.00,,SKC,0.00,VWS V14.01,2013-03-09 07:25:00,
2013-03-09 01:30:00,63.2,59.9,29.99,SE,146,3.0,13.0,89,0.00,,SKC,0.00,VWS V14.01,2013-03-09 07:30:00,
2013-03-09 01:35:00,63.2,59.9,29.99,SSE,153,4.0,12.0,89,0.00,,SKC,0.00,VWS V14.01,2013-03-09 07:35:00,
2013-03-09 01:40:00,63.2,59.9,29.99,SE,144,3.0,12.0,89,0.00,,SKC,0.00,VWS V14.01,2013-03-09 07:40:00,
2013-03-09 01:45:00,63.1,59.8,29.99,SE,140,7.0,12.0,89,0.00,,SKC,0.00,VWS V14.01,2013-03-09 07:45:00,
2013-03-09 01:50:00,63.1,59.8,29.98,SE,142,5.0,12.0,89,0.00,,SKC,0.00,VWS V14.01,2013-03-09 07:50:00,
2013-03-09 01:55:00,63.1,59.8,29.98,SE,142,5.0,12.0,89,0.00,,SKC,0.00,VWS V14.01,2013-03-09 07:55:00,
2013-03-09 02:00:00,63.1,59.8,29.98,SE,144,6.0,12.0,89,0.00,,SKC,0.00,VWS V14.01,2013-03-09 08:00:00,
2013-03-09 02:05:00,63.1,59.8,29.97,SE,146,6.0,12.0,89,0.00,,SKC,0.00,VWS V14.01,2013-03-09 08:05:00,
2013-03-09 02:10:00,63.1,60.1,29.97,SE,144,2.0,12.0,90,0.00,,SKC,0.00,VWS V14.01,2013-03-09 08:10:00,
2013-03-09 02:15:00,63.1,60.1,29.97,SE,140,4.0,12.0,90,0.00,,SKC,0.00,VWS V14.01,2013-03-09 08:15:00,
2013-03-09 02:20:00,63.1,60.1,29.97,SE,140,4.0,12.0,90,0.00,,SKC,0.00,VWS V14.01,2013-03-09 08:20:00,
2013-03-09 02:25:00,63.1,60.1,29.96,SE,146,4.0,12.0,90,0.00,,SKC,0.00,VWS V14.01,2013-03-09 08:25:00,
2013-03-09 02:30:00,63.1,60.1,29.97,SSE,148,6.0,12.0,90,0.00,,SKC,0.00,VWS V14.01,2013-03-09 08:30:00,
2013-03-09 02:35:00,63.1,60.1,29.96,SSE,148,9.0,10.0,90,0.00,,SKC,0.00,VWS V14.01,2013-03-09 08:35:00,
2013-03-09 02:40:00,63.2,60.2,29.96,SE,143,2.0,11.0,90,0.00,,SKC,0.00,VWS V14.01,2013-03-09 08:40:00,
2013-03-09 02:45:00,63.2,60.2,29.96,SSE,148,5.0,13.0,90,0.00,,SKC,0.00,VWS V14.01,2013-03-09 08:45:00,
2013-03-09 02:50:00,63.2,60.2,29.95,SE,135,6.0,13.0,90,0.00,,SKC,0.00,VWS V14.01,2013-03-09 08:50:00,
2013-03-09 02:55:00,63.2,60.2,29.95,SE,146,1.0,13.0,90,0.00,,SKC,0.00,VWS V14.01,2013-03-09 08:55:00,
2013-03-09 03:00:00,63.2,60.2,29.95,SSE,156,6.0,13.0,90,0.00,,SKC,0.00,VWS V14.01,2013-03-09 09:00:00,
2013-03-09 03:05:00,63.3,60.3,29.95,SSE,148,5.0,11.0,90,0.00,,SKC,0.00,VWS V14.01,2013-03-09 09:05:00,
2013-03-09 03:10:00,63.3,60.3,29.95,SE,142,5.0,12.0,90,0.00,,SKC,0.00,VWS V14.01,2013-03-09 09:10:00,
2013-03-09 03:15:00,63.3,60.9,29.95,SE,142,4.0,13.0,92,0.00,,SKC,0.00,VWS V14.01,2013-03-09 09:15:00,
2013-03-09 03:20:00,63.3,60.9,29.94,SE,145,6.0,13.0,92,0.00,,SKC,0.00,VWS V14.01,2013-03-09 09:20:00,
2013-03-09 03:25:00,63.3,60.6,29.93,SE,140,2.0,13.0,91,0.00,,SKC,0.00,VWS V14.01,2013-03-09 09:25:00,
2013-03-09 03:30:00,63.2,60.5,29.93,SE,140,6.0,13.0,91,0.00,,SKC,0.00,VWS V14.01,2013-03-09 09:30:00,
2013-03-09 03:35:00,63.2,60.5,29.93,SE,142,6.0,12.0,91,0.00,,SKC,0.00,VWS V14.01,2013-03-09 09:35:00,
2013-03-09 03:40:00,63.2,60.5,29.93,SSE,154,4.0,12.0,91,0.00,,SKC,0.00,VWS V14.01,2013-03-09 09:40:00,
2013-03-09 03:45:00,63.2,60.5,29.93,SSE,154,5.0,13.0,91,0.00,,SKC,0.00,VWS V14.01,2013-03-09 09:45:00,
2013-03-09 03:50:00,63.2,60.5,29.93,SE,144,5.0,13.0,91,0.00,,SKC,0.00,VWS V14.01,2013-03-09 09:50:00,
2013-03-09 03:55:00,63.2,60.5,29.92,SSE,147,4.0,13.0,91,0.00,,SKC,0.00,VWS V14.01,2013-03-09 09:55:00,
2013-03-09 04:00:00,63.2,60.5,29.92,SE,144,4.0,13.0,91,0.00,,SKC,0.00,VWS V14.01,2013-03-09 10:00:00,
2013-03-09 04:05:00,63.2,60.5,29.92,SE,144,3.0,7.0,91,0.00,,SKC,0.00,VWS V14.01,2013-03-09 10:05:00,
2013-03-09 04:10:00,63.2,60.8,29.92,SSE,152,5.0,13.0,92,0.00,,SKC,0.00,VWS V14.01,2013-03-09 10:10:00,
2013-03-09 04:15:00,63.2,60.8,29.92,SSE,147,2.0,13.0,92,0.00,,SKC,0.00,VWS V14.01,2013-03-09 10:15:00,
2013-03-09 04:20:00,63.2,60.8,29.92,SE,146,5.0,13.0,92,0.00,,SKC,0.00,VWS V14.01,2013-03-09 10:20:00,
2013-03-09 04:25:00,63.2,60.8,29.92,SE,144,4.0,13.0,92,0.00,,SKC,0.00,VWS V14.01,2013-03-09 10:25:00,
2013-03-09 04:30:00,63.2,60.8,29.92,SE,145,2.0,13.0,92,0.00,,SKC,0.00,VWS V14.01,2013-03-09 10:30:00,
2013-03-09 04:35:00,63.2,60.8,29.92,SE,144,4.0,9.0,92,0.00,,SKC,0.00,VWS V14.01,2013-03-09 10:35:00,
2013-03-09 04:40:00,63.2,60.8,29.92,SE,141,3.0,11.0,92,0.00,,SKC,0.00,VWS V14.01,2013-03-09 10:40:00,
2013-03-09 04:45:00,63.2,61.2,29.92,SE,142,4.0,11.0,93,0.00,,SKC,0.00,VWS V14.01,2013-03-09 10:45:00,
2013-03-09 04:50:00,63.2,61.2,29.92,SE,144,4.0,11.0,93,0.00,,SKC,0.00,VWS V14.01,2013-03-09 10:50:00,
2013-03-09 04:55:00,63.2,61.2,29.92,SE,144,3.0,11.0,93,0.00,,SKC,0.00,VWS V14.01,2013-03-09 10:55:00,
2013-03-09 05:00:00,63.2,61.2,29.92,SE,144,4.0,11.0,93,0.00,,SKC,0.00,VWS V14.01,2013-03-09 11:00:00,
2013-03-09 05:05:00,63.2,61.2,29.91,SE,145,3.0,9.0,93,0.00,,SKC,0.00,VWS V14.01,2013-03-09 11:05:00,
2013-03-09 05:10:00,63.2,61.2,29.92,SE,145,3.0,9.0,93,0.00,,SKC,0.00,VWS V14.01,2013-03-09 11:10:00,
2013-03-09 05:15:00,63.2,61.2,29.91,SE,146,4.0,9.0,93,0.00,,SKC,0.00,VWS V14.01,2013-03-09 11:15:00,
2013-03-09 05:20:00,63.2,61.2,29.91,SE,146,3.0,9.0,93,0.00,,SKC,0.00,VWS V14.01,2013-03-09 11:20:00,
2013-03-09 05:25:00,63.2,61.2,29.91,SE,146,3.0,9.0,93,0.00,,SKC,0.00,VWS V14.01,2013-03-09 11:25:00,
2013-03-09 05:30:00,63.2,61.2,29.91,SE,146,3.0,9.0,93,0.00,,SKC,0.00,VWS V14.01,2013-03-09 11:30:00,
2013-03-09 05:35:00,63.2,61.2,29.91,SSE,150,4.0,8.0,93,0.00,,SKC,0.00,VWS V14.01,2013-03-09 11:35:00,
2013-03-09 05:40:00,63.2,61.2,29.91,SE,144,9.0,9.0,93,0.00,,SKC,0.00,VWS V14.01,2013-03-09 11:40:00,
2013-03-09 05:45:00,63.2,61.5,29.91,SE,140,4.0,10.0,94,0.00,,SKC,0.00,VWS V14.01,2013-03-09 11:45:00,
2013-03-09 05:50:00,63.2,61.5,29.91,SE,140,3.0,11.0,94,0.00,,SKC,0.00,VWS V14.01,2013-03-09 11:50:00,
2013-03-09 05:55:00,63.2,61.5,29.91,SE,146,2.0,13.0,94,0.00,,SKC,0.00,VWS V14.01,2013-03-09 11:55:00,
2013-03-09 06:00:00,63.3,61.5,29.91,SSE,148,3.0,13.0,94,0.01,,SKC,0.01,VWS V14.01,2013-03-09 12:00:00,
2013-03-09 06:05:00,63.3,61.5,29.92,SE,146,2.0,9.0,94,0.01,,SKC,0.01,VWS V14.01,2013-03-09 12:05:00,
2013-03-09 06:10:00,63.4,61.7,29.92,SE,143,5.0,12.0,94,0.01,,SKC,0.01,VWS V14.01,2013-03-09 12:10:00,
2013-03-09 06:15:00,63.4,61.7,29.92,SE,141,6.0,14.0,94,0.01,,SKC,0.01,VWS V14.01,2013-03-09 12:15:00,
2013-03-09 06:20:00,63.4,61.7,29.92,SE,140,3.0,14.0,94,0.01,,SKC,0.01,VWS V14.01,2013-03-09 12:20:00,
2013-03-09 06:25:00,63.4,61.7,29.92,SE,139,5.0,14.0,94,0.01,,SKC,0.01,VWS V14.01,2013-03-09 12:25:00,
2013-03-09 06:30:00,63.5,61.8,29.92,SE,139,5.0,14.0,94,0.02,,SKC,0.02,VWS V14.01,2013-03-09 12:30:00,
2013-03-09 06:35:00,63.5,61.8,29.92,SE,141,5.0,7.0,94,0.02,,SKC,0.02,VWS V14.01,2013-03-09 12:35:00,
2013-03-09 06:40:00,63.5,61.8,29.92,SE,142,1.0,9.0,94,0.02,,SKC,0.02,VWS V14.01,2013-03-09 12:40:00,
2013-03-09 06:45:00,63.5,61.8,29.93,SE,142,2.0,9.0,94,0.02,,SKC,0.02,VWS V14.01,2013-03-09 12:45:00,
2013-03-09 06:50:00,63.5,62.0,29.93,SE,143,3.0,12.0,95,0.02,,SKC,0.02,VWS V14.01,2013-03-09 12:50:00,
2013-03-09 06:55:00,63.5,62.0,29.93,SE,144,3.0,12.0,95,0.02,,SKC,0.02,VWS V14.01,2013-03-09 12:55:00,
2013-03-09 07:00:00,63.6,62.2,29.92,SE,143,4.0,12.0,95,0.02,,SKC,0.02,VWS V14.01,2013-03-09 13:00:00,
2013-03-09 07:05:00,63.6,62.2,29.92,SSE,148,7.0,12.0,95,0.01,,SKC,0.02,VWS V14.01,2013-03-09 13:05:00,
2013-03-09 07:10:00,63.6,62.2,29.92,SE,141,7.0,12.0,95,0.02,,SKC,0.03,VWS V14.01,2013-03-09 13:10:00,
2013-03-09 07:15:00,63.6,62.2,29.92,SE,144,3.0,12.0,95,0.02,,SKC,0.03,VWS V14.01,2013-03-09 13:15:00,
2013-03-09 07:20:00,63.6,62.2,29.92,SSE,148,6.0,12.0,95,0.02,,SKC,0.03,VWS V14.01,2013-03-09 13:20:00,
2013-03-09 07:25:00,63.6,62.2,29.92,SE,145,6.0,12.0,95,0.02,,SKC,0.03,VWS V14.01,2013-03-09 13:25:00,
2013-03-09 07:30:00,63.6,62.2,29.92,SE,145,8.0,13.0,95,0.02,,SKC,0.03,VWS V14.01,2013-03-09 13:30:00,
2013-03-09 07:35:00,63.6,62.2,29.92,SE,144,3.0,9.0,95,0.01,,SKC,0.03,VWS V14.01,2013-03-09 13:35:00,
2013-03-09 07:40:00,63.6,62.2,29.93,SSE,153,6.0,11.0,95,0.02,,SKC,0.04,VWS V14.01,2013-03-09 13:40:00,
2013-03-09 07:45:00,63.6,62.2,29.93,SE,146,7.0,11.0,95,0.02,,SKC,0.04,VWS V14.01,2013-03-09 13:45:00,
2013-03-09 07:50:00,63.6,62.2,29.93,SSE,148,9.0,11.0,95,0.02,,SKC,0.04,VWS V14.01,2013-03-09 13:50:00,
2013-03-09 07:55:00,63.6,62.2,29.93,SE,139,4.0,11.0,95,0.02,,SKC,0.04,VWS V14.01,2013-03-09 13:55:00,
2013-03-09 08:00:00,63.6,62.2,29.93,SE,137,6.0,11.0,95,0.03,,SKC,0.05,VWS V14.01,2013-03-09 14:00:00,
2013-03-09 08:05:00,63.7,62.2,29.93,SSE,148,4.0,7.0,95,0.03,,SKC,0.05,VWS V14.01,2013-03-09 14:05:00,
2013-03-09 08:10:00,63.7,62.2,29.93,SSE,148,2.0,9.0,95,0.03,,SKC,0.05,VWS V14.01,2013-03-09 14:10:00,
2013-03-09 08:15:00,63.6,62.2,29.93,SSE,148,6.0,9.0,95,0.03,,SKC,0.05,VWS V14.01,2013-03-09 14:15:00,
2013-03-09 08:20:00,63.7,62.2,29.93,SE,144,5.0,12.0,95,0.04,,SKC,0.06,VWS V14.01,2013-03-09 14:20:00,
2013-03-09 08:25:00,63.7,62.2,29.93,SSE,149,4.0,12.0,95,0.04,,SKC,0.06,VWS V14.01,2013-03-09 14:25:00,
2013-03-09 08:30:00,63.7,62.2,29.93,SE,142,5.0,12.0,95,0.04,,SKC,0.06,VWS V14.01,2013-03-09 14:30:00,
2013-03-09 08:35:00,63.7,62.2,29.92,SE,145,4.0,12.0,95,0.03,,SKC,0.06,VWS V14.01,2013-03-09 14:35:00,
2013-03-09 08:40:00,63.7,62.2,29.92,SE,140,0.0,12.0,95,0.03,,SKC,0.06,VWS V14.01,2013-03-09 14:40:00,
2013-03-09 08:45:00,63.8,62.3,29.92,SE,140,6.0,13.0,95,0.03,,SKC,0.06,VWS V14.01,2013-03-09 14:45:00,
2013-03-09 08:50:00,63.8,62.3,29.92,SSE,149,5.0,14.0,95,0.03,,SKC,0.06,VWS V14.01,2013-03-09 14:50:00,
2013-03-09 08:55:00,63.8,62.3,29.92,SE,140,3.0,14.0,95,0.03,,SKC,0.06,VWS V14.01,2013-03-09 14:55:00,
2013-03-09 09:00:00,63.9,62.4,29.92,SE,142,5.0,14.0,95,0.03,,SKC,0.06,VWS V14.01,2013-03-09 15:00:00,
2013-03-09 09:05:00,63.9,62.4,29.92,SE,137,5.0,12.0,95,0.01,,SKC,0.06,VWS V14.01,2013-03-09 15:05:00,
2013-03-09 09:10:00,64.0,62.5,29.92,SSE,157,5.0,13.0,95,0.01,,SKC,0.06,VWS V14.01,2013-03-09 15:10:00,
2013-03-09 09:15:00,64.0,62.5,29.92,SSE,150,4.0,13.0,95,0.01,,SKC,0.06,VWS V14.01,2013-03-09 15:15:00,
2013-03-09 09:20:00,64.0,62.5,29.92,SE,138,4.0,13.0,95,0.01,,SKC,0.06,VWS V14.01,2013-03-09 15:20:00,
2013-03-09 09:25:00,64.1,62.6,29.91,SE,138,7.0,13.0,95,0.01,,SKC,0.06,VWS V14.01,2013-03-09 15:25:00,
2013-03-09 09:30:00,64.1,62.6,29.92,SE,135,5.0,13.0,95,0.01,,SKC,0.06,VWS V14.01,2013-03-09 15:30:00,
2013-03-09 09:35:00,64.1,62.6,29.92,SE,140,7.0,9.0,95,0.00,,SKC,0.06,VWS V14.01,2013-03-09 15:35:00,
2013-03-09 09:40:00,64.2,62.7,29.92,SE,146,4.0,9.0,95,0.00,,SKC,0.06,VWS V14.01,2013-03-09 15:40:00,
2013-03-09 09:45:00,64.1,62.6,29.92,SE,145,7.0,11.0,95,0.00,,SKC,0.06,VWS V14.01,2013-03-09 15:45:00,
2013-03-09 09:50:00,64.1,62.6,29.91,SE,145,3.0,11.0,95,0.00,,SKC,0.06,VWS V14.01,2013-03-09 15:50:00,
2013-03-09 09:55:00,64.1,62.6,29.91,SSE,148,3.0,15.0,95,0.00,,SKC,0.06,VWS V14.01,2013-03-09 15:55:00,
2013-03-09 10:00:00,64.1,62.6,29.91,SE,144,8.0,15.0,95,0.00,,SKC,0.06,VWS V14.01,2013-03-09 16:00:00,
2013-03-09 10:05:00,64.1,62.6,29.90,SE,136,9.0,9.0,95,0.00,,SKC,0.06,VWS V14.01,2013-03-09 16:05:00,
2013-03-09 10:10:00,64.2,62.7,29.90,SE,139,3.0,15.0,95,0.00,,SKC,0.06,VWS V14.01,2013-03-09 16:10:00,
2013-03-09 10:15:00,64.3,63.1,29.90,SE,142,3.0,15.0,96,0.00,,SKC,0.06,VWS V14.01,2013-03-09 16:15:00,
2013-03-09 10:20:00,64.3,63.1,29.89,SE,142,3.0,15.0,96,0.00,,SKC,0.06,VWS V14.01,2013-03-09 16:20:00,
2013-03-09 10:25:00,64.4,63.2,29.89,SE,140,5.0,15.0,96,0.00,,SKC,0.06,VWS V14.01,2013-03-09 16:25:00,
2013-03-09 10:30:00,64.5,63.3,29.89,SE,142,2.0,15.0,96,0.00,,SKC,0.06,VWS V14.01,2013-03-09 16:30:00,
2013-03-09 10:35:00,64.5,63.0,29.89,SE,146,2.0,11.0,95,0.00,,SKC,0.06,VWS V14.01,2013-03-09 16:35:00,
2013-03-09 10:40:00,64.7,63.2,29.89,SSE,147,3.0,12.0,95,0.00,,SKC,0.06,VWS V14.01,2013-03-09 16:40:00,
2013-03-09 10:45:00,64.7,63.2,29.89,SSE,150,6.0,13.0,95,0.00,,SKC,0.06,VWS V14.01,2013-03-09 16:45:00,
2013-03-09 10:50:00,64.8,63.3,29.89,SE,142,2.0,14.0,95,0.00,,SKC,0.06,VWS V14.01,2013-03-09 16:50:00,
2013-03-09 10:55:00,64.9,63.4,29.88,SE,146,6.0,14.0,95,0.00,,SKC,0.06,VWS V14.01,2013-03-09 16:55:00,
2013-03-09 11:00:00,64.9,63.7,29.88,SE,144,2.0,14.0,96,0.00,,SKC,0.06,VWS V14.01,2013-03-09 17:00:00,
2013-03-09 11:05:00,65.0,63.8,29.88,SE,144,4.0,10.0,96,0.00,,SKC,0.06,VWS V14.01,2013-03-09 17:05:00,
2013-03-09 11:10:00,65.1,63.9,29.87,SE,143,3.0,11.0,96,0.00,,SKC,0.06,VWS V14.01,2013-03-09 17:10:00,
2013-03-09 11:15:00,65.2,64.0,29.88,SE,142,5.0,11.0,96,0.00,,SKC,0.06,VWS V14.01,2013-03-09 17:15:00,
2013-03-09 11:20:00,65.3,63.8,29.88,SE,139,7.0,11.0,95,0.00,,SKC,0.06,VWS V14.01,2013-03-09 17:20:00,
2013-03-09 11:25:00,65.3,63.8,29.88,SE,144,2.0,13.0,95,0.00,,SKC,0.06,VWS V14.01,2013-03-09 17:25:00,
2013-03-09 11:30:00,65.4,63.9,29.88,SE,146,7.0,13.0,95,0.00,,SKC,0.06,VWS V14.01,2013-03-09 17:30:00,
2013-03-09 11:35:00,65.5,64.0,29.88,SE,144,0.0,6.0,95,0.00,,SKC,0.06,VWS V14.01,2013-03-09 17:35:00,
2013-03-09 11:40:00,65.6,64.4,29.87,SE,144,3.0,7.0,96,0.00,,SKC,0.06,VWS V14.01,2013-03-09 17:40:00,
2013-03-09 11:45:00,65.7,64.2,29.88,SE,144,5.0,7.0,95,0.00,,SKC,0.06,VWS V14.01,2013-03-09 17:45:00,
2013-03-09 11:50:00,65.8,64.3,29.87,SE,144,1.0,7.0,95,0.00,,SKC,0.06,VWS V14.01,2013-03-09 17:50:00,
2013-03-09 11:55:00,65.9,64.4,29.87,SE,144,2.0,7.0,95,0.00,,SKC,0.06,VWS V14.01,2013-03-09 17:55:00,
2013-03-09 12:00:00,65.9,64.4,29.86,SE,145,5.0,7.0,95,0.00,,SKC,0.06,VWS V14.01,2013-03-09 18:00:00,
2013-03-09 12:05:00,66.0,64.5,29.86,SE,145,0.0,1.0,95,0.00,,SKC,0.06,VWS V14.01,2013-03-09 18:05:00,
2013-03-09 12:10:00,66.2,64.7,29.86,SE,142,5.0,9.0,95,0.00,,SKC,0.06,VWS V14.01,2013-03-09 18:10:00,
2013-03-09 12:15:00,66.3,64.8,29.86,SE,142,3.0,9.0,95,0.00,,SKC,0.06,VWS V14.01,2013-03-09 18:15:00,
2013-03-09 12:20:00,66.4,64.9,29.86,SE,142,4.0,9.0,95,0.00,,SKC,0.06,VWS V14.01,2013-03-09 18:20:00,
2013-03-09 12:25:00,66.5,65.0,29.86,SE,142,4.0,9.0,95,0.00,,SKC,0.06,VWS V14.01,2013-03-09 18:25:00,
2013-03-09 12:30:00,66.6,65.1,29.85,SSE,156,2.0,9.0,95,0.00,,SKC,0.06,VWS V14.01,2013-03-09 18:30:00,
2013-03-09 12:35:00,66.7,65.2,29.85,SSE,152,4.0,9.0,95,0.00,,SKC,0.06,VWS V14.01,2013-03-09 18:35:00,
2013-03-09 12:40:00,66.8,65.3,29.84,SSE,153,6.0,9.0,95,0.00,,SKC,0.06,VWS V14.01,2013-03-09 18:40:00,
2013-03-09 12:45:00,66.9,65.4,29.84,SSE,152,4.0,9.0,95,0.00,,SKC,0.06,VWS V14.01,2013-03-09 18:45:00,
2013-03-09 12:50:00,67.1,65.3,29.84,SSE,152,4.0,9.0,94,0.00,,SKC,0.06,VWS V14.01,2013-03-09 18:50:00,
2013-03-09 12:55:00,67.2,65.4,29.83,SSE,150,7.0,11.0,94,0.00,,SKC,0.06,VWS V14.01,2013-03-09 18:55:00,
2013-03-09 13:00:00,67.5,65.7,29.82,SE,146,3.0,11.0,94,0.00,,SKC,0.06,VWS V14.01,2013-03-09 19:00:00,
2013-03-09 13:05:00,67.7,65.6,29.82,SE,144,5.0,12.0,93,0.00,,SKC,0.06,VWS V14.01,2013-03-09 19:05:00,
2013-03-09 13:10:00,68.1,66.0,29.81,SE,144,5.0,12.0,93,0.00,,SKC,0.06,VWS V14.01,2013-03-09 19:10:00,
2013-03-09 13:15:00,68.5,66.4,29.80,SSE,147,3.0,12.0,93,0.00,,SKC,0.06,VWS V14.01,2013-03-09 19:15:00,
2013-03-09 13:20:00,69.2,66.8,29.80,SE,143,3.0,12.0,92,0.00,,SKC,0.06,VWS V14.01,2013-03-09 19:20:00,
2013-03-09 13:25:00,69.7,66.6,29.79,SSE,155,7.0,18.0,90,0.00,,SKC,0.06,VWS V14.01,2013-03-09 19:25:00,
2013-03-09 13:30:00,70.3,66.9,29.79,SE,132,5.0,18.0,89,0.00,,SKC,0.06,VWS V14.01,2013-03-09 19:30:00,
2013-03-09 13:35:00,71.1,67.0,29.78,SE,144,6.0,13.0,87,0.00,,SKC,0.06,VWS V14.01,2013-03-09 19:35:00,
2013-03-09 13:40:00,71.9,67.2,29.78,SSE,155,5.0,16.0,85,0.00,,SKC,0.06,VWS V14.01,2013-03-09 19:40:00,
2013-03-09 13:45:00,72.7,67.2,29.78,SE,136,11.0,16.0,83,0.00,,SKC,0.06,VWS V14.01,2013-03-09 19:45:00,
2013-03-09 13:50:00,73.2,67.0,29.78,SE,132,10.0,17.0,81,0.00,,SKC,0.06,VWS V14.01,2013-03-09 19:50:00,
2013-03-09 13:55:00,73.5,66.2,29.78,SE,144,12.0,19.0,78,0.00,,SKC,0.06,VWS V14.01,2013-03-09 19:55:00,
2013-03-09 14:00:00,73.7,66.4,29.78,SE,129,10.0,21.0,78,0.00,,SKC,0.06,VWS V14.01,2013-03-09 20:00:00,
2013-03-09 14:05:00,73.9,66.2,29.78,South,186,10.0,17.0,77,0.00,,SKC,0.06,VWS V14.01,2013-03-09 20:05:00,
2013-03-09 14:10:00,73.9,66.2,29.78,SSE,149,10.0,18.0,77,0.00,,SKC,0.06,VWS V14.01,2013-03-09 20:10:00,
2013-03-09 14:15:00,73.9,65.9,29.77,SSE,165,9.0,19.0,76,0.00,,SKC,0.06,VWS V14.01,2013-03-09 20:15:00,
2013-03-09 14:20:00,73.8,65.8,29.77,SE,146,9.0,19.0,76,0.00,,SKC,0.06,VWS V14.01,2013-03-09 20:20:00,
2013-03-09 14:25:00,73.8,65.8,29.77,SE,131,10.0,19.0,76,0.00,,SKC,0.06,VWS V14.01,2013-03-09 20:25:00,
2013-03-09 14:30:00,73.8,65.8,29.76,SE,140,4.0,19.0,76,0.00,,SKC,0.06,VWS V14.01,2013-03-09 20:30:00,
2013-03-09 14:35:00,74.0,66.0,29.75,SSE,158,15.0,15.0,76,0.00,,SKC,0.06,VWS V14.01,2013-03-09 20:35:00,
2013-03-09 14:40:00,74.2,65.8,29.75,SSE,148,7.0,15.0,75,0.00,,SKC,0.06,VWS V14.01,2013-03-09 20:40:00,
2013-03-09 14:45:00,74.4,66.0,29.74,SSE,153,7.0,16.0,75,0.00,,SKC,0.06,VWS V14.01,2013-03-09 20:45:00,
2013-03-09 14:50:00,74.6,66.2,29.75,SE,145,7.0,20.0,75,0.00,,SKC,0.06,VWS V14.01,2013-03-09 20:50:00,
2013-03-09 14:55:00,75.0,65.8,29.74,SSE,159,12.0,20.0,73,0.00,,SKC,0.06,VWS V14.01,2013-03-09 20:55:00,
2013-03-09 15:00:00,75.3,66.4,29.73,SE,142,9.0,20.0,74,0.00,,SKC,0.06,VWS V14.01,2013-03-09 21:00:00,
2013-03-09 15:05:00,75.7,66.0,29.73,SE,146,11.0,18.0,72,0.00,,SKC,0.06,VWS V14.01,2013-03-09 21:05:00,
2013-03-09 15:10:00,75.8,66.1,29.73,SSE,162,6.0,20.0,72,0.00,,SKC,0.06,VWS V14.01,2013-03-09 21:10:00,
2013-03-09 15:15:00,75.7,66.0,29.73,SSE,157,5.0,20.0,72,0.00,,SKC,0.06,VWS V14.01,2013-03-09 21:15:00,
2013-03-09 15:20:00,75.5,65.8,29.73,SSE,151,10.0,20.0,72,0.00,,SKC,0.06,VWS V14.01,2013-03-09 21:20:00,
2013-03-09 15:25:00,75.4,66.2,29.72,SE,144,6.0,20.0,73,0.00,,SKC,0.06,VWS V14.01,2013-03-09 21:25:00,
2013-03-09 15:30:00,75.1,65.9,29.73,ESE,112,3.0,20.0,73,0.00,,SKC,0.06,VWS V14.01,2013-03-09 21:30:00,
2013-03-09 15:35:00,74.9,66.1,29.73,South,175,5.0,7.0,74,0.00,,SKC,0.06,VWS V14.01,2013-03-09 21:35:00,
2013-03-09 15:40:00,74.8,66.0,29.72,SSE,148,6.0,13.0,74,0.00,,SKC,0.06,VWS V14.01,2013-03-09 21:40:00,
2013-03-09 15:45:00,74.6,65.8,29.72,SSE,147,6.0,20.0,74,0.00,,SKC,0.06,VWS V14.01,2013-03-09 21:45:00,
2013-03-09 15:50:00,74.2,65.8,29.72,SSE,148,6.0,20.0,75,0.00,,SKC,0.06,VWS V14.01,2013-03-09 21:50:00,
2013-03-09 15:55:00,74.0,66.0,29.72,SSE,152,9.0,20.0,76,0.00,,SKC,0.06,VWS V14.01,2013-03-09 21:55:00,
2013-03-09 16:00:00,73.7,65.7,29.72,SE,142,4.0,20.0,76,0.00,,SKC,0.06,VWS V14.01,2013-03-09 22:00:00,
2013-03-09 16:05:00,73.7,65.7,29.72,SE,138,5.0,13.0,76,0.00,,SKC,0.06,VWS V14.01,2013-03-09 22:05:00,
2013-03-09 16:10:00,73.8,66.2,29.71,SE,143,10.0,13.0,77,0.00,,SKC,0.06,VWS V14.01,2013-03-09 22:10:00,
2013-03-09 16:15:00,73.9,65.9,29.71,SE,137,6.0,14.0,76,0.00,,SKC,0.06,VWS V14.01,2013-03-09 22:15:00,
2013-03-09 16:20:00,74.0,66.0,29.71,SE,143,6.0,15.0,76,0.00,,SKC,0.06,VWS V14.01,2013-03-09 22:20:00,
2013-03-09 16:25:00,73.9,65.9,29.72,SE,145,5.0,16.0,76,0.00,,SKC,0.06,VWS V14.01,2013-03-09 22:25:00,
2013-03-09 16:30:00,73.9,66.2,29.72,SSE,150,4.0,16.0,77,0.00,,SKC,0.06,VWS V14.01,2013-03-09 22:30:00,
2013-03-09 16:35:00,74.0,66.0,29.71,SE,140,7.0,19.0,76,0.00,,SKC,0.06,VWS V14.01,2013-03-09 22:35:00,
2013-03-09 16:40:00,74.2,66.2,29.71,SSE,154,12.0,19.0,76,0.00,,SKC,0.06,VWS V14.01,2013-03-09 22:40:00,
2013-03-09 16:45:00,74.4,66.3,29.71,SE,136,5.0,19.0,76,0.00,,SKC,0.06,VWS V14.01,2013-03-09 22:45:00,
2013-03-09 16:50:00,74.6,66.2,29.71,SE,144,4.0,19.0,75,0.00,,SKC,0.06,VWS V14.01,2013-03-09 22:50:00,
2013-03-09 16:55:00,74.5,65.7,29.71,SSE,152,4.0,19.0,74,0.00,,SKC,0.06,VWS V14.01,2013-03-09 22:55:00,
2013-03-09 17:00:00,74.2,65.8,29.72,SSE,168,10.0,19.0,75,0.00,,SKC,0.06,VWS V14.01,2013-03-09 23:00:00,
2013-03-09 17:05:00,73.9,65.5,29.72,SE,146,8.0,14.0,75,0.00,,SKC,0.06,VWS V14.01,2013-03-09 23:05:00,
2013-03-09 17:10:00,73.7,65.7,29.72,SE,133,6.0,17.0,76,0.00,,SKC,0.06,VWS V14.01,2013-03-09 23:10:00,
2013-03-09 17:15:00,73.4,65.4,29.72,SE,136,6.0,17.0,76,0.00,,SKC,0.06,VWS V14.01,2013-03-09 23:15:00,
2013-03-09 17:20:00,73.2,65.2,29.71,SE,140,12.0,19.0,76,0.00,,SKC,0.06,VWS V14.01,2013-03-09 23:20:00,
2013-03-09 17:25:00,72.9,65.3,29.71,SSE,158,16.0,22.0,77,0.00,,SKC,0.06,VWS V14.01,2013-03-09 23:25:00,
2013-03-09 17:30:00,72.5,65.3,29.71,SSE,160,10.0,26.0,78,0.00,,SKC,0.06,VWS V14.01,2013-03-09 23:30:00,
2013-03-09 17:35:00,72.2,65.0,29.71,SSE,151,6.0,12.0,78,0.00,,SKC,0.06,VWS V14.01,2013-03-09 23:35:00,
2013-03-09 17:40:00,71.9,65.0,29.72,SSE,159,9.0,19.0,79,0.00,,SKC,0.06,VWS V14.01,2013-03-09 23:40:00,
2013-03-09 17:45:00,71.7,64.8,29.72,SE,143,23.0,23.0,79,0.00,,SKC,0.06,VWS V14.01,2013-03-09 23:45:00,
2013-03-09 17:50:00,71.3,64.8,29.72,SE,143,7.0,23.0,80,0.00,,SKC,0.06,VWS V14.01,2013-03-09 23:50:00,
2013-03-09 17:55:00,71.0,64.5,29.71,SSE,155,11.0,23.0,80,0.00,,SKC,0.06,VWS V14.01,2013-03-09 23:55:00,
2013-03-09 18:00:00,70.8,64.7,29.72,ESE,116,13.0,23.0,81,0.00,,SKC,0.06,VWS V14.01,2013-03-10 00:00:00,
2013-03-09 18:05:00,70.7,64.6,29.72,SE,124,7.0,19.0,81,0.00,,SKC,0.06,VWS V14.01,2013-03-10 00:05:00,
2013-03-09 18:10:00,70.5,64.8,29.72,SE,146,9.0,19.0,82,0.00,,SKC,0.06,VWS V14.01,2013-03-10 00:10:00,
2013-03-09 18:15:00,70.3,64.6,29.72,SE,144,15.0,20.0,82,0.00,,SKC,0.06,VWS V14.01,2013-03-10 00:15:00,
2013-03-09 18:20:00,70.2,64.4,29.72,SSE,147,5.0,20.0,82,0.00,,SKC,0.06,VWS V14.01,2013-03-10 00:20:00,
2013-03-09 18:25:00,70.1,64.4,29.72,SSE,148,8.0,20.0,82,0.00,,SKC,0.06,VWS V14.01,2013-03-10 00:25:00,
2013-03-09 18:30:00,70.0,64.6,29.72,SE,136,14.0,20.0,83,0.00,,SKC,0.06,VWS V14.01,2013-03-10 00:30:00,
2013-03-09 18:35:00,69.9,64.5,29.72,SE,146,7.0,15.0,83,0.00,,SKC,0.06,VWS V14.01,2013-03-10 00:35:00,
2013-03-09 18:40:00,69.7,64.3,29.72,SSE,150,14.0,21.0,83,0.00,,SKC,0.06,VWS V14.01,2013-03-10 00:40:00,
2013-03-09 18:45:00,69.7,64.3,29.72,South,169,10.0,21.0,83,0.00,,SKC,0.06,VWS V14.01,2013-03-10 00:45:00,
2013-03-09 18:49:00,69.6,64.2,29.72,SE,136,3.0,21.0,83,0.00,,SKC,0.06,VWS V14.01,2013-03-10 00:49:00,
2013-03-09 18:54:00,69.5,64.1,29.72,ESE,113,10.0,21.0,83,0.00,,SKC,0.06,VWS V14.01,2013-03-10 00:54:00,
2013-03-09 18:59:00,69.4,64.4,29.72,SE,139,12.0,21.0,84,0.00,,SKC,0.06,VWS V14.01,2013-03-10 00:59:00,
2013-03-09 19:04:00,69.4,64.4,29.71,SE,140,9.0,17.0,84,0.00,,SKC,0.06,VWS V14.01,2013-03-10 01:04:00,
2013-03-09 19:09:00,69.4,64.4,29.71,SE,142,1.0,17.0,84,0.00,,SKC,0.06,VWS V14.01,2013-03-10 01:09:00,
2013-03-09 19:14:00,69.4,64.4,29.71,SSE,153,11.0,17.0,84,0.00,,SKC,0.06,VWS V14.01,2013-03-10 01:14:00,
2013-03-09 19:19:00,69.3,64.3,29.71,ESE,123,7.0,17.0,84,0.00,,SKC,0.06,VWS V14.01,2013-03-10 01:19:00,
2013-03-09 19:24:00,69.2,64.2,29.70,SE,134,13.0,17.0,84,0.00,,SKC,0.06,VWS V14.01,2013-03-10 01:24:00,
2013-03-09 19:29:00,69.1,64.1,29.70,SE,142,6.0,19.0,84,0.00,,SKC,0.06,VWS V14.01,2013-03-10 01:29:00,
2013-03-09 19:34:00,69.0,64.0,29.70,SSE,150,11.0,14.0,84,0.00,,SKC,0.06,VWS V14.01,2013-03-10 01:34:00,
2013-03-09 19:39:00,68.9,63.9,29.70,SE,130,6.0,14.0,84,0.00,,SKC,0.06,VWS V14.01,2013-03-10 01:39:00,
2013-03-09 19:44:00,68.9,63.9,29.70,SE,144,9.0,17.0,84,0.00,,SKC,0.06,VWS V14.01,2013-03-10 01:44:00,
2013-03-09 19:49:00,68.8,63.8,29.69,SSE,147,6.0,17.0,84,0.00,,SKC,0.06,VWS V14.01,2013-03-10 01:49:00,
2013-03-09 19:54:00,68.7,64.0,29.70,SSE,152,0.0,17.0,85,0.00,,SKC,0.06,VWS V14.01,2013-03-10 01:54:00,
2013-03-09 19:59:00,68.6,63.9,29.70,SE,138,9.0,17.0,85,0.00,,SKC,0.06,VWS V14.01,2013-03-10 01:59:00,
2013-03-09 20:04:00,68.5,63.8,29.69,SE,138,15.0,15.0,85,0.00,,SKC,0.06,VWS V14.01,2013-03-10 02:04:00,
2013-03-09 20:09:00,68.5,63.8,29.70,SSE,149,5.0,16.0,85,0.00,,SKC,0.06,VWS V14.01,2013-03-10 02:09:00,
2013-03-09 20:14:00,68.4,63.7,29.70,SE,140,9.0,19.0,85,0.00,,SKC,0.06,VWS V14.01,2013-03-10 02:14:00,
2013-03-09 20:19:00,68.3,63.6,29.70,SSE,152,7.0,19.0,85,0.00,,SKC,0.06,VWS V14.01,2013-03-10 02:19:00,
2013-03-09 20:24:00,68.2,63.5,29.70,SE,145,9.0,19.0,85,0.00,,SKC,0.06,VWS V14.01,2013-03-10 02:24:00,
2013-03-09 20:29:00,68.2,63.5,29.70,SE,144,9.0,19.0,85,0.00,,SKC,0.06,VWS V14.01,2013-03-10 02:29:00,
2013-03-09 20:34:00,68.1,63.4,29.70,SSE,155,7.0,18.0,85,0.00,,SKC,0.06,VWS V14.01,2013-03-10 02:34:00,
2013-03-09 20:39:00,68.0,63.7,29.70,SSE,151,14.0,19.0,86,0.00,,SKC,0.06,VWS V14.01,2013-03-10 02:39:00,
2013-03-09 20:44:00,67.9,63.6,29.70,SSE,156,9.0,19.0,86,0.00,,SKC,0.06,VWS V14.01,2013-03-10 02:44:00,
2013-03-09 20:49:00,67.9,63.6,29.70,SE,145,6.0,19.0,86,0.00,,SKC,0.06,VWS V14.01,2013-03-10 02:49:00,
2013-03-09 20:54:00,67.9,63.6,29.69,SE,144,8.0,20.0,86,0.00,,SKC,0.06,VWS V14.01,2013-03-10 02:54:00,
2013-03-09 20:59:00,67.8,63.5,29.68,SSE,164,7.0,22.0,86,0.00,,SKC,0.06,VWS V14.01,2013-03-10 02:59:00,
2013-03-09 21:04:00,67.7,63.4,29.68,SSE,152,9.0,24.0,86,0.00,,SKC,0.06,VWS V14.01,2013-03-10 03:04:00,
2013-03-09 21:09:00,67.7,63.4,29.67,ESE,118,17.0,24.0,86,0.00,,SKC,0.06,VWS V14.01,2013-03-10 03:09:00,
2013-03-09 21:14:00,67.7,63.4,29.67,SSE,154,6.0,24.0,86,0.00,,SKC,0.06,VWS V14.01,2013-03-10 03:14:00,
2013-03-09 21:19:00,67.6,63.3,29.67,SE,137,11.0,24.0,86,0.00,,SKC,0.06,VWS V14.01,2013-03-10 03:19:00,
2013-03-09 21:24:00,67.6,63.3,29.66,SE,145,12.0,24.0,86,0.00,,SKC,0.06,VWS V14.01,2013-03-10 03:24:00,
2013-03-09 21:29:00,67.6,63.3,29.65,South,170,9.0,24.0,86,0.00,,SKC,0.06,VWS V14.01,2013-03-10 03:29:00,
2013-03-09 21:34:00,67.6,63.3,29.65,South,172,9.0,19.0,86,0.00,,SKC,0.06,VWS V14.01,2013-03-10 03:34:00,
2013-03-09 21:39:00,67.5,63.2,29.65,SSE,153,6.0,19.0,86,0.00,,SKC,0.06,VWS V14.01,2013-03-10 03:39:00,
2013-03-09 21:44:00,67.5,63.2,29.64,SE,142,13.0,23.0,86,0.00,,SKC,0.06,VWS V14.01,2013-03-10 03:44:00,
2013-03-09 21:49:00,67.5,63.2,29.64,South,191,10.0,23.0,86,0.00,,SKC,0.06,VWS V14.01,2013-03-10 03:49:00,
2013-03-09 21:54:00,67.5,63.2,29.64,SSE,163,11.0,23.0,86,0.00,,SKC,0.06,VWS V14.01,2013-03-10 03:54:00,
2013-03-09 21:59:00,67.5,63.2,29.65,South,175,7.0,23.0,86,0.00,,SKC,0.06,VWS V14.01,2013-03-10 03:59:00,
2013-03-09 22:04:00,67.5,63.5,29.64,SSE,152,12.0,16.0,87,0.00,,SKC,0.06,VWS V14.01,2013-03-10 04:04:00,
2013-03-09 22:09:00,67.5,63.5,29.65,SSE,151,6.0,18.0,87,0.00,,SKC,0.06,VWS V14.01,2013-03-10 04:09:00,
2013-03-09 22:14:00,67.4,63.4,29.67,SSE,168,12.0,20.0,87,0.00,,SKC,0.06,VWS V14.01,2013-03-10 04:14:00,
2013-03-09 22:19:00,67.4,63.4,29.68,SE,133,10.0,20.0,87,0.00,,SKC,0.06,VWS V14.01,2013-03-10 04:19:00,
2013-03-09 22:24:00,67.4,63.4,29.69,SE,144,7.0,20.0,87,0.00,,SKC,0.06,VWS V14.01,2013-03-10 04:24:00,
2013-03-09 22:29:00,67.4,63.4,29.68,SSE,147,9.0,20.0,87,0.00,,SKC,0.06,VWS V14.01,2013-03-10 04:29:00,
2013-03-09 22:34:00,67.4,63.4,29.69,SE,143,5.0,11.0,87,0.00,,SKC,0.06,VWS V14.01,2013-03-10 04:34:00,
2013-03-09 22:39:00,67.4,63.4,29.69,SSE,168,2.0,15.0,87,0.00,,SKC,0.06,VWS V14.01,2013-03-10 04:39:00,
2013-03-09 22:44:00,67.4,63.4,29.70,ESE,115,2.0,15.0,87,0.00,,SKC,0.06,VWS V14.01,2013-03-10 04:44:00,
2013-03-09 22:49:00,67.4,63.4,29.71,SE,141,3.0,15.0,87,0.00,,SKC,0.06,VWS V14.01,2013-03-10 04:49:00,
2013-03-09 22:54:00,67.4,63.4,29.71,SE,146,11.0,15.0,87,0.00,,SKC,0.06,VWS V14.01,2013-03-10 04:54:00,
2013-03-09 22:59:00,67.5,63.5,29.70,SE,140,9.0,16.0,87,0.00,,SKC,0.06,VWS V14.01,2013-03-10 04:59:00,
2013-03-09 23:00:00,67.5,63.5,29.70,SE,140,4.0,16.0,87,0.00,,SKC,0.06,VWS V14.01,2013-03-10 05:00:00,
2013-03-09 23:05:00,67.5,63.5,29.74,South,188,4.0,8.0,87,0.00,,SKC,0.06,VWS V14.01,2013-03-10 05:05:00,
2013-03-09 23:10:00,67.5,63.5,29.72,SE,136,7.0,11.0,87,0.00,,SKC,0.06,VWS V14.01,2013-03-10 05:10:00,
2013-03-09 23:15:00,67.5,63.5,29.69,SSE,156,12.0,14.0,87,0.00,,SKC,0.06,VWS V14.01,2013-03-10 05:15:00,
2013-03-09 23:20:00,67.5,63.5,29.72,South,177,17.0,19.0,87,0.00,,SKC,0.06,VWS V14.01,2013-03-10 05:20:00,
2013-03-09 23:25:00,67.5,63.5,29.69,SSE,153,5.0,20.0,87,0.00,,SKC,0.06,VWS V14.01,2013-03-10 05:25:00,
2013-03-09 23:30:00,67.5,63.5,29.69,SSE,164,10.0,20.0,87,0.00,,SKC,0.06,VWS V14.01,2013-03-10 05:30:00,
2013-03-09 23:35:00,67.4,63.4,29.68,SE,138,6.0,16.0,87,0.00,,SKC,0.06,VWS V14.01,2013-03-10 05:35:00,
2013-03-09 23:40:00,67.4,63.4,29.72,SSW,199,6.0,16.0,87,0.00,,SKC,0.06,VWS V14.01,2013-03-10 05:40:00,
2013-03-09 23:45:00,67.4,63.4,29.70,SSE,148,15.0,16.0,87,0.00,,SKC,0.06,VWS V14.01,2013-03-10 05:45:00,
2013-03-09 23:50:00,67.4,63.4,29.63,SE,128,4.0,17.0,87,0.00,,SKC,0.06,VWS V14.01,2013-03-10 05:50:00,
2013-03-09 23:55:00,67.2,63.2,29.68,SSW,196,5.0,17.0,87,0.00,,SKC,0.06,VWS V14.01,2013-03-10 05:55:00,